This demonstration page uses our WeatherBlox Daily Observations layout. Learn more.

Left ArrowRight Arrow

Hourly Observations for September 17, 2015

Temp ( °F °C ) Dew Point ( °F °C ) Humidity (%) Winds ( mph kmh ) Pressure ( in mb ) Visibility ( mi km ) Precip ( " mm )
12:59 am 00:59 Mostly Cloudy 64 17.8 59 15 84 84 Calm 30.24 1024 10 16 0.00 0.00
1:59 am 01:59 Cloudy 64 17.8 60 15.6 87 87 Calm 30.24 1024 9 14 0.00 0.00
2:59 am 02:59 Cloudy 63 17.2 60 15.6 90 90 Calm 30.23 1024 7 11 0.00 0.00
3:59 am 03:59 Cloudy 63 17.2 60 15.6 90 90 Calm 30.22 1023 7 11 0.00 0.00
4:59 am 04:59 Cloudy 63 17.2 60 15.6 90 90 Calm 30.21 1023 8 13 0.00 0.00
5:59 am 05:59 Cloudy with Mist and Fog 64 17.8 61 16.1 90 90 Calm 30.21 1023 6 10 0.00 0.00
6:59 am 06:59 Cloudy with Mist and Fog 64 17.8 61 16.1 90 90 Calm 30.22 1023 5 8 0.00 0.00
7:59 am 07:59 Mostly Cloudy 68 20 64 17.8 87 87 NNW 5 7 30.21 1023 7 11 0.00 0.00
8:59 am 08:59 Mostly Cloudy 71 21.7 65 18.3 81 81 N 5 7 30.21 1023 7 11 0.00 0.00
9:59 am 09:59 Mostly Cloudy 73 22.8 63 17.2 71 71 N 5 7 30.22 1023 10 16 0.00 0.00
10:59 am 10:59 Mostly Cloudy 76 24.4 65 18.3 69 69 N 6 9 30.22 1023 10 16 0.00 0.00
11:59 am 11:59 Partly Cloudy 75 23.9 64 17.8 69 69 NE 7 11 30.21 1023 10 16 0.00 0.00
12:59 pm 12:59 Mostly Cloudy 78 25.6 65 18.3 64 64 ENE 7 11 30.19 1022 10 16 0.00 0.00
1:59 pm 13:59 Mostly Cloudy 78 25.6 64 17.8 62 62 VRB 3 6 30.17 1022 10 16 0.00 0.00
2:59 pm 14:59 Mostly Cloudy 79 26.1 64 17.8 60 60 ENE 9 15 30.15 1021 10 16 0.00 0.00
3:59 pm 15:59 Partly Cloudy 78 25.6 64 17.8 62 62 E 8 13 30.13 1020 10 16 0.00 0.00
4:59 pm 16:59 Partly Cloudy 78 25.6 65 18.3 64 64 ENE 9 15 30.12 1020 10 16 0.00 0.00
5:59 pm 17:59 Partly Cloudy 77 25 65 18.3 66 66 E 9 15 30.10 1019 10 16 0.00 0.00
6:59 pm 18:59 Partly Cloudy 74 23.3 64 17.8 71 71 ESE 6 9 30.10 1019 10 16 0.00 0.00
7:59 pm 19:59 Partly Cloudy 71 21.7 64 17.8 79 79 ESE 3 6 30.11 1020 10 16 0.00 0.00
8:59 pm 20:59 Partly Cloudy 68 20 63 17.2 84 84 ESE 3 6 30.11 1020 10 16 0.00 0.00
9:59 pm 21:59 Partly Cloudy 67 19.4 63 17.2 87 87 Calm 30.11 1020 10 16 0.00 0.00
10:59 pm 22:59 Partly Cloudy 66 18.9 63 17.2 90 90 Calm 30.11 1020 9 14 0.00 0.00
11:59 pm 23:59 Mostly Clear 65 18.3 62 16.7 90 90 Calm 30.10 1019 8 13 0.00 0.00

Powered by AerisWeather